This is the latest recevied weather packets stored in our database for station/object KQ4NAL. If no packets are shown the sender has not sent any weather packets the latest 10 day(s).
| Time | Temp. | Humidity | Pressure | Rain* | Wind** | Luminosity | Snow |
|---|---|---|---|---|---|---|---|
| 1777914032 | 18.33° C | 68% | 1009.9 hPa | 0 mm | - | 167 W/m² | - |
| 1777913727 | 18.33° C | 66% | 1010.1 hPa | 0 mm | - | 164 W/m² | - |
| 1777913425 | 18.89° C | 65% | 1010.9 hPa | 0 mm | - | 125 W/m² | - |
| 1777913121 | 19.44° C | 65% | 1010.8 hPa | 0 mm | - | 239 W/m² | - |
| 1777912817 | 19.44° C | 63% | 1010.3 hPa | 0 mm | - | 428 W/m² | - |
| 1777912513 | 19.44° C | 63% | 1010.5 hPa | 0 mm | - | 227 W/m² | - |
| 1777912210 | 20° C | 62% | 1010.7 hPa | 0 mm | - | 309 W/m² | - |
| 1777911906 | 20.56° C | 62% | 1011.1 hPa | 0 mm | - | 565 W/m² | - |
| 1777911602 | 21.11° C | 60% | 1011.2 hPa | 0 mm | - | 661 W/m² | - |
| 1777911298 | 21.11° C | 63% | 1011 hPa | 0 mm | - | 740 W/m² | - |
| 1777910996 | 20.56° C | 65% | 1010.8 hPa | 0 mm | - | 821 W/m² | - |
| 1777910694 | 20.56° C | 64% | 1010.7 hPa | 0 mm | - | 496 W/m² | - |
| 1777910390 | 20° C | 64% | 1010.6 hPa | 0 mm | - | 474 W/m² | - |
| 1777910087 | 20° C | 64% | 1010.9 hPa | 0 mm | - | 564 W/m² | - |
| 1777909784 | 19.44° C | 65% | 1010.8 hPa | 0 mm | - | 619 W/m² | - |
| 1777909481 | 18.89° C | 66% | 1010.4 hPa | 0 mm | - | 455 W/m² | - |
| 1777909178 | 18.33° C | 67% | 1010.7 hPa | 0 mm | - | 630 W/m² | - |
| 1777908876 | 18.89° C | 67% | 1011 hPa | 0 mm | - | 292 W/m² | - |
| 1777908573 | 18.33° C | 65% | 1011 hPa | 0 mm | - | 671 W/m² | - |
| 1777908270 | 18.33° C | 65% | 1010.8 hPa | 0 mm | - | 427 W/m² | - |
| 1777907966 | 18.33° C | 65% | 1011 hPa | 0 mm | - | 356 W/m² | - |
| 1777907662 | 18.33° C | 66% | 1010.9 hPa | 0 mm | - | 356 W/m² | - |
| 1777907358 | 18.33° C | 67% | 1010.6 hPa | 0 mm | - | 311 W/m² | - |
| 1777907054 | 17.78° C | 67% | 1010.8 hPa | 0 mm | - | 609 W/m² | - |
| 1777906752 | 17.78° C | 68% | 1010.7 hPa | 0 mm | - | 473 W/m² | - |
* Rain latest hour (hover to see other rain measurements)
** Current wind speed in m/s (hover to see current wind gust speed)